Location: Buttermere
(51.3333°N, 1.5167°W)
Time: 22:34:51
(UTC+00:00)

CRYOSAT 2 - Pass Details

Date: 18 September 2020
Orbit: 714 x 725 km, 92.0° (Epoch: 20 October)

Event Time Altitude Azimuth Distance (km) Brightness Sun altitude
Rises 20:49:40 0° 5° (N) 3,154 8.1 -23.7°
Reaches altitude 10° 20:51:59 10° 7° (N) 2,227 7.2 -24.0°
Maximum altitude 20:56:55 78° 94° (E) 744 4.2 -24.6°
Enters shadow 20:57:02 78° 113° (ESE) 745 4.2 -24.6°
